Other Surface Observations
Issued by NWS

Home | Current Version | Previous Version | Text Only | Print | Product List | Glossary On
Versions: 1 2 3 4 5 6 7 8 9 10 11 12 13 14 15 16 17 18 19 20 21 22 23 24 25 26 27 28 29 30 31 32 33 34 35 36 37 38 39 40 41 42 43 44 45 46 47 48 49 50
000
SXUS52 KTAE 300905
OSOTAE
OSOTAE
North Florida/South Alabama/Southwest Georgia Weather Roundup
National Weather Service Tallahassee Florida
500 AM EDT SAT AUG 30 2014

Note: "fair" indicates few or no clouds below 12,000 feet with no
significant weather and/or obstructions to visibility.

!FLZ017-115-028-034-025-301000
...North Florida...

CITY           SKY/WX    TMP DP  RH WIND       PRES   REMARKS
TALLAHASSEE    CLEAR     75  73  94 CALM      30.08F
APALACHICOLA   PTCLDY    77  75  93 CALM      30.07S
PERRY          PTCLDY    72  72 100 CALM      30.10S
CROSS CITY       N/A     73  70  90 CALM      30.09F
HOMERVILLE     FAIR      73  73 100 CALM      30.10S
JACKSONVILLE   PTCLDY    73  73 100 CALM      30.09S
$$

!FLZ112-006-005-002-011-301000
...Florida Panhandle...

CITY           SKY/WX    TMP DP  RH WIND       PRES   REMARKS
MARIANNA       CLOUDY    75  75 100 CALM      30.07S FOG
BONIFAY        LGT RAIN  72  71  97 CALM      30.08R
PANAMA CITY NW FAIR      76  73  91 NE5       30.05R
TYNDALL AFB    PTCLDY    81  75  84 S5        30.07S
TYND DRONE APT FAIR      80  76  88 S3        30.05S
DE FUNIAK SPR  FAIR      75  74  98 E3        30.07R
EGLIN AFB      MOCLDY    80  76  86 N1        30.04F
DESTIN         MOCLDY    83  76  79 SW5       30.04S HX  91
HURLBURT       NOT AVBL
CRESTVIEW      PTCLDY    74  73  97 NE3       30.07S
PENSACOLA      CLOUDY    78  74  87 S6        30.04S
$$

!ALZ063-066-301000
...South Alabama...

CITY           SKY/WX    TMP DP  RH WIND       PRES   REMARKS
DOTHAN         MOCLDY    73  72  96 E5        30.12S FOG
OZARK CAIRNS   CLEAR     73  72  96 NE3       30.07S
FT RUCKER HELI CLEAR     74  72  93 CALM      30.06F
RUCKER HELI 3  CLOUDY    74  74  97 SE3       30.10S FOG
RUCKER HELI 2  FAIR      75  73  93 E5        30.08R
FLORALA APT    PTCLDY    75  73  93 CALM      30.08R
ANDALUSIA      PTCLDY    78  73  84 SE3       30.07R
TROY           PTCLDY    76  73  91 CALM      30.08S
EUFALA         FAIR      74  71  91 CALM      30.08S
MOBILE         CLOUDY    77  76  96 S6        30.04S
$$

!GAZ120>161-301000
...Southwest and South Central Georgia...

CITY           SKY/WX    TMP DP  RH WIND       PRES   REMARKS
THOMASVILLE    FAIR      77  77 100 CALM      30.11S
BAINBRIDGE     CLOUDY    79  77  94 CALM      30.09S FOG
MOODY AFB      PTCLDY    75  72  91 S1        30.10F
VALDOSTA       PTCLDY    73  71  93 CALM      30.10S
MOULTRIE       MOCLDY    75  75 100 CALM      30.11S
BLAKELY        FOG       75  73  94 CALM        N/A  VSB 1/4
ALBANY         PTCLDY    75  74  96 CALM      30.12R
TIFTON         FAIR      75  73  93 CALM      30.10F
FITZGERALD     FAIR      75  73  91 CALM      30.13S FOG
CORDELE        FAIR      78  73  85 CALM      30.11S
AMERICUS       FAIR      75  73  94 CALM      30.12R
$$

!GMZ750-755-770-775-301000
...Coastal and Buoy Obs...

STATION/POSITION TIME  TEMP    WIND        PRES    VSBY  WAVE
                       AIR SEA DIR/SP/G                  HT/PER
                 (UTC) (F)     (DEG/KT/KT) (MB)    (MI)  (FT/S)
KEATON BEACH     0900   75      80/  4/  5 1019.2R
CEDAR KEY        0800   82     180/  5/  5 1019.6S
C TOWER          0900   83     160/  6/  7 1018.4R
APALACHICOLA BUO 0900   85 86  130/  6/  6 1018.3R         2/ 5
PANAMA CITY BUOY 0746   85 86  160/  8/ 10 1017.7          2/ 6
MOBILE BUOY      0900   82 84  150/  8/ 10 1016.8F
ORANGE BCH AL BU 0900   82 85  160/ 12/ 14 1016.8R         2/ 5
$$



USA.gov is the U.S. government's official web portal to all federal, state and local government web resources and services.